"Sample Date","Sample Time","Sample Value","Units","Flow Rate","Sample Interval","Number Channels","Micron Size 0","Counts/Channel 0","Micron Size 1","Counts/Channel 1","Micron Size 2","Counts/Channel 2","Micron Size 3","Counts/Channel 3","Micron Size 4","Counts/Channel 4","Micron Size 5","Counts/Channel 5","Micron Size 6","Counts/Channel 6","Micron Size 7","Counts/Channel 7","Micron Size 8","Counts/Channel 8","Micron Size 9","Counts/Channel 9","Micron Size 10","Counts/Channel 10","Micron Size 11","Counts/Channel 11","Micron Size 12","Counts/Channel 12","Micron Size 13","Counts/Channel 13","Micron Size 14","Counts/Channel 14","Micron Size 15","Counts/Channel 15","Micron Size 16","Counts/Channel 16","Micron Size 17","Counts/Channel 17","Micron Size 18","Counts/Channel 18","Micron Size 19","Counts/Channel 19","Micron Size 20","Counts/Channel 20","Micron Size 21","Counts/Channel 21","Micron Size 22","Counts/Channel 22","Micron Size 23","Counts/Channel 23","Micron Size 24","Counts/Channel 24","Micron Size 25","Counts/Channel 25","Micron Size 26","Counts/Channel 26","Micron Size 27","Counts/Channel 27","Micron Size 28","Counts/Channel 28","Micron Size 29","Counts/Channel 29","Micron Size 30","Counts/Channel 30","Micron Size 31","Counts/Channel 31"
"03/05/08","12:00:00",22962.000,"cc",28327.057,6.00,6,0.100,20253.000,0.200,1409.000,0.300,546.000,0.500,567.000,1.000,187.000,5.000,0
"03/05/08","12:00:06",22838.000,"cc",28337.025,6.00,6,0.100,20218.000,0.200,1349.000,0.300,544.000,0.500,552.000,1.000,175.000,5.000,0
"03/05/08","12:00:12",22608.000,"cc",28331.863,6.00,6,0.100,20037.000,0.200,1328.000,0.300,520.000,0.500,562.000,1.000,161.000,5.000,0
"03/05/08","12:00:18",22989.000,"cc",28318.272,6.00,6,0.100,20405.000,0.200,1363.000,0.300,503.000,0.500,539.000,1.000,179.000,5.000,0
"03/05/08","12:00:24",23001.000,"cc",28321.625,6.00,6,0.100,20487.000,0.200,1367.000,0.300,477.000,0.500,534.000,1.000,136.000,5.000,0
"03/05/08","12:00:30",23036.000,"cc",28310.904,6.00,6,0.100,20535.000,0.200,1344.000,0.300,497.000,0.500,499.000,1.000,161.000,5.000,0
"03/05/08","12:00:36",22787.000,"cc",28282.178,6.00,6,0.100,20384.000,0.200,1310.000,0.300,465.000,0.500,497.000,1.000,131.000,5.000,0
"03/05/08","12:00:42",23207.000,"cc",28369.219,6.00,6,0.100,20611.000,0.200,1298.000,0.300,521.000,0.500,604.000,1.000,173.000,5.000,0
"03/05/08","12:00:48",23085.000,"cc",28376.080,6.00,6,0.100,20469.000,0.200,1366.000,0.300,526.000,0.500,556.000,1.000,168.000,5.000,0
"03/05/08","12:00:54",23366.000,"cc",28299.869,6.00,6,0.100,20640.000,0.200,1372.000,0.300,565.000,0.500,605.000,1.000,184.000,5.000,0
"03/05/08","12:01:00",23168.000,"cc",28292.533,6.00,6,0.100,20685.000,0.200,1288.000,0.300,511.000,0.500,505.000,1.000,179.000,5.000,0
"03/05/08","12:01:06",23006.000,"cc",28267.627,6.00,6,0.100,20486.000,0.200,1321.000,0.300,532.000,0.500,527.000,1.000,140.000,5.000,0
"03/05/08","12:01:12",22733.000,"cc",28390.815,6.00,6,0.100,20373.000,0.200,1232.000,0.300,483.000,0.500,500.000,1.000,145.000,5.000,0
"03/05/08","12:01:18",23050.000,"cc",28308.533,6.00,6,0.100,20704.000,0.200,1246.000,0.300,492.000,0.500,478.000,1.000,130.000,5.000,0
"03/05/08","12:01:24",22760.000,"cc",28331.309,6.00,6,0.100,20437.000,0.200,1261.000,0.300,457.000,0.500,473.000,1.000,132.000,5.000,0
"03/05/08","12:01:30",22912.000,"cc",28352.119,6.00,6,0.100,20603.000,0.200,1254.000,0.300,441.000,0.500,465.000,1.000,149.000,5.000,0
"03/05/08","12:01:36",22774.000,"cc",28241.420,6.00,6,0.100,20346.000,0.200,1305.000,0.300,480.000,0.500,488.000,1.000,155.000,5.000,0
"03/05/08","12:01:42",23151.000,"cc",28334.545,6.00,6,0.100,20763.000,0.200,1240.000,0.300,480.000,0.500,497.000,1.000,171.000,5.000,0
"03/05/08","12:01:48",22881.000,"cc",28323.221,6.00,6,0.100,20589.000,0.200,1234.000,0.300,462.000,0.500,447.000,1.000,149.000,5.000,0
"03/05/08","12:01:54",22767.000,"cc",28325.977,6.00,6,0.100,20430.000,0.200,1263.000,0.300,456.000,0.500,459.000,1.000,159.000,5.000,0
"03/05/08","12:02:00",23390.000,"cc",28307.397,6.00,6,0.100,20966.000,0.200,1309.000,0.300,463.000,0.500,499.000,1.000,153.000,5.000,0
"03/05/08","12:02:06",23422.000,"cc",28289.190,6.00,6,0.100,20874.000,0.200,1358.000,0.300,512.000,0.500,520.000,1.000,158.000,5.000,0
"03/05/08","12:02:12",23166.000,"cc",28286.498,6.00,6,0.100,20728.000,0.200,1264.000,0.300,507.000,0.500,507.000,1.000,160.000,5.000,0
"03/05/08","12:02:18",22833.000,"cc",28338.473,6.00,6,0.100,20451.000,0.200,1291.000,0.300,479.000,0.500,459.000,1.000,153.000,5.000,0
"03/05/08","12:02:24",23602.000,"cc",28340.231,6.00,6,0.100,20966.000,0.200,1355.000,0.300,558.000,0.500,553.000,1.000,170.000,5.000,0
"03/05/08","12:02:30",23704.000,"cc",28341.988,6.00,6,0.100,21099.000,0.200,1303.000,0.300,584.000,0.500,566.000,1.000,152.000,5.000,0
"03/05/08","12:02:36",23412.000,"cc",28342.348,6.00,6,0.100,21155.000,0.200,1236.000,0.300,458.000,0.500,440.000,1.000,123.000,5.000,0
"03/05/08","12:02:42",23380.000,"cc",28330.672,6.00,6,0.100,21017.000,0.200,1340.000,0.300,439.000,0.500,457.000,1.000,127.000,5.000,0
"03/05/08","12:02:48",23144.000,"cc",28317.402,6.00,6,0.100,20906.000,0.200,1220.000,0.300,431.000,0.500,456.000,1.000,131.000,5.000,0
"03/05/08","12:02:54",23707.000,"cc",28281.815,6.00,6,0.100,21520.000,0.200,1244.000,0.300,397.000,0.500,425.000,1.000,121.000,5.000,0
"03/05/08","12:03:00",22748.000,"cc",28267.154,6.00,6,0.100,20712.000,0.200,1141.000,0.300,380.000,0.500,393.000,1.000,122.000,5.000,0
"03/05/08","12:03:06",23020.000,"cc",28353.502,6.00,6,0.100,20894.000,0.200,1202.000,0.300,413.000,0.500,394.000,1.000,117.000,5.000,0
"03/05/08","12:03:12",23527.000,"cc",28300.611,6.00,6,0.100,21002.000,0.200,1362.000,0.300,486.000,0.500,501.000,1.000,176.000,5.000,0
"03/05/08","12:03:18",23267.000,"cc",28315.086,6.00,6,0.100,20893.000,0.200,1282.000,0.300,465.000,0.500,467.000,1.000,160.000,5.000,0
"03/05/08","12:03:24",23038.000,"cc",28340.557,6.00,6,0.100,20706.000,0.200,1315.000,0.300,444.000,0.500,443.000,1.000,130.000,5.000,0
"03/05/08","12:03:30",23466.000,"cc",28301.766,6.00,6,0.100,21180.000,0.200,1241.000,0.300,448.000,0.500,463.000,1.000,134.000,5.000,0
"03/05/08","12:03:36",23399.000,"cc",28277.039,6.00,6,0.100,21074.000,0.200,1243.000,0.300,460.000,0.500,483.000,1.000,139.000,5.000,0
"03/05/08","12:03:42",22904.000,"cc",28287.447,6.00,6,0.100,20640.000,0.200,1277.000,0.300,411.000,0.500,446.000,1.000,130.000,5.000,0
"03/05/08","12:03:48",23209.000,"cc",28323.856,6.00,6,0.100,20801.000,0.200,1302.000,0.300,495.000,0.500,469.000,1.000,142.000,5.000,0
"03/05/08","12:03:54",23299.000,"cc",28350.063,6.00,6,0.100,20877.000,0.200,1357.000,0.300,442.000,0.500,471.000,1.000,152.000,5.000,0
"03/05/08","12:04:00",23120.000,"cc",28356.791,6.00,6,0.100,20680.000,0.200,1340.000,0.300,463.000,0.500,494.000,1.000,143.000,5.000,0
"03/05/08","12:04:06",23559.000,"cc",28325.834,6.00,6,0.100,21238.000,0.200,1310.000,0.300,449.000,0.500,441.000,1.000,121.000,5.000,0
"03/05/08","12:04:12",23309.000,"cc",28303.344,6.00,6,0.100,20895.000,0.200,1337.000,0.300,466.000,0.500,452.000,1.000,159.000,5.000,0
"03/05/08","12:04:18",23269.000,"cc",28293.260,6.00,6,0.100,20728.000,0.200,1371.000,0.300,468.000,0.500,551.000,1.000,151.000,5.000,0
"03/05/08","12:04:24",23493.000,"cc",28270.406,6.00,6,0.100,20866.000,0.200,1432.000,0.300,556.000,0.500,502.000,1.000,137.000,5.000,0
"03/05/08","12:04:30",23377.000,"cc",28299.590,6.00,6,0.100,20879.000,0.200,1373.000,0.300,493.000,0.500,496.000,1.000,136.000,5.000,0
"03/05/08","12:04:36",23386.000,"cc",28296.406,6.00,6,0.100,20831.000,0.200,1388.000,0.300,505.000,0.500,515.000,1.000,147.000,5.000,0
"03/05/08","12:04:42",23442.000,"cc",28357.457,6.00,6,0.100,20921.000,0.200,1390.000,0.300,495.000,0.500,491.000,1.000,145.000,5.000,0
"03/05/08","12:04:48",23966.000,"cc",28334.154,6.00,6,0.100,21318.000,0.200,1446.000,0.300,514.000,0.500,523.000,1.000,165.000,5.000,0
"03/05/08","12:04:54",24090.000,"cc",28323.699,6.00,6,0.100,21369.000,0.200,1421.000,0.300,531.000,0.500,578.000,1.000,191.000,5.000,0
"03/05/08","12:05:00",23754.000,"cc",28254.451,6.00,6,0.100,21169.000,0.200,1435.000,0.300,519.000,0.500,501.000,1.000,130.000,5.000,0
"03/05/08","12:05:06",24204.000,"cc",28296.686,6.00,6,0.100,21463.000,0.200,1475.000,0.300,548.000,0.500,564.000,1.000,154.000,5.000,0
"03/05/08","12:05:12",25248.000,"cc",28356.523,6.00,6,0.100,21857.000,0.200,1633.000,0.300,738.000,0.500,777.000,1.000,243.000,5.000,0
"03/05/08","12:05:18",24824.000,"cc",28336.801,6.00,6,0.100,21816.000,0.200,1533.000,0.300,673.000,0.500,631.000,1.000,171.000,5.000,0
"03/05/08","12:05:24",23757.000,"cc",28314.799,6.00,6,0.100,21325.000,0.200,1343.000,0.300,459.000,0.500,474.000,1.000,156.000,5.000,0
"03/05/08","12:05:30",24372.000,"cc",28264.061,6.00,6,0.100,21859.000,0.200,1407.000,0.300,472.000,0.500,496.000,1.000,138.000,5.000,0
"03/05/08","12:05:36",24628.000,"cc",28369.402,6.00,6,0.100,22084.000,0.200,1378.000,0.300,487.000,0.500,525.000,1.000,154.000,5.000,0
"03/05/08","12:05:42",24590.000,"cc",28308.363,6.00,6,0.100,21846.000,0.200,1391.000,0.300,598.000,0.500,577.000,1.000,178.000,5.000,0
"03/05/08","12:05:48",24601.000,"cc",28224.664,6.00,6,0.100,22059.000,0.200,1386.000,0.300,495.000,0.500,501.000,1.000,160.000,5.000,0
"03/05/08","12:05:54",24857.000,"cc",28392.367,6.00,6,0.100,22411.000,0.200,1348.000,0.300,473.000,0.500,493.000,1.000,132.000,5.000,0
"03/05/08","12:06:00",24344.000,"cc",28369.518,6.00,6,0.100,21849.000,0.200,1387.000,0.300,477.000,0.500,483.000,1.000,148.000,5.000,0
"03/05/08","12:06:06",24537.000,"cc",28340.326,6.00,6,0.100,21870.000,0.200,1416.000,0.300,529.000,0.500,556.000,1.000,166.000,5.000,0
"03/05/08","12:06:12",24587.000,"cc",28283.590,6.00,6,0.100,22003.000,0.200,1395.000,0.300,515.000,0.500,537.000,1.000,137.000,5.000,0
"03/05/08","12:06:18",24305.000,"cc",28273.748,6.00,6,0.100,21525.000,0.200,1471.000,0.300,525.000,0.500,618.000,1.000,166.000,5.000,0
"03/05/08","12:06:24",24121.000,"cc",28362.793,6.00,6,0.100,21507.000,0.200,1371.000,0.300,540.000,0.500,540.000,1.000,163.000,5.000,0
"03/05/08","12:06:30",23973.000,"cc",28306.219,6.00,6,0.100,21473.000,0.200,1388.000,0.300,473.000,0.500,490.000,1.000,149.000,5.000,0
"03/05/08","12:06:36",23998.000,"cc",28284.686,6.00,6,0.100,21406.000,0.200,1366.000,0.300,544.000,0.500,539.000,1.000,143.000,5.000,0
"03/05/08","12:06:42",24403.000,"cc",28315.986,6.00,6,0.100,21742.000,0.200,1416.000,0.300,546.000,0.500,539.000,1.000,160.000,5.000,0
"03/05/08","12:06:48",23941.000,"cc",28291.822,6.00,6,0.100,21404.000,0.200,1410.000,0.300,489.000,0.500,494.000,1.000,144.000,5.000,0
"03/05/08","12:06:54",24396.000,"cc",28325.770,6.00,6,0.100,21682.000,0.200,1431.000,0.300,564.000,0.500,558.000,1.000,161.000,5.000,0
"03/05/08","12:07:00",24155.000,"cc",28338.699,6.00,6,0.100,21460.000,0.200,1401.000,0.300,550.000,0.500,582.000,1.000,162.000,5.000,0
"03/05/08","12:07:06",24213.000,"cc",28326.898,6.00,6,0.100,21645.000,0.200,1382.000,0.300,500.000,0.500,545.000,1.000,141.000,5.000,0
"03/05/08","12:07:12",24366.000,"cc",28318.531,6.00,6,0.100,21801.000,0.200,1381.000,0.300,490.000,0.500,551.000,1.000,143.000,5.000,0
"03/05/08","12:07:18",24544.000,"cc",28319.180,6.00,6,0.100,21973.000,0.200,1356.000,0.300,516.000,0.500,554.000,1.000,145.000,5.000,0
"03/05/08","12:07:24",23990.000,"cc",28320.566,6.00,6,0.100,21457.000,0.200,1396.000,0.300,513.000,0.500,482.000,1.000,142.000,5.000,0
"03/05/08","12:07:30",24547.000,"cc",28329.236,6.00,6,0.100,21905.000,0.200,1491.000,0.300,480.000,0.500,517.000,1.000,154.000,5.000,0
"03/05/08","12:07:36",24226.000,"cc",28264.145,6.00,6,0.100,21485.000,0.200,1449.000,0.300,544.000,0.500,563.000,1.000,185.000,5.000,0
"03/05/08","12:07:42",24513.000,"cc",28280.088,6.00,6,0.100,21737.000,0.200,1468.000,0.300,530.000,0.500,611.000,1.000,167.000,5.000,0
"03/05/08","12:07:48",24525.000,"cc",28318.236,6.00,6,0.100,21614.000,0.200,1502.000,0.300,583.000,0.500,645.000,1.000,181.000,5.000,0
"03/05/08","12:07:54",24183.000,"cc",28324.336,6.00,6,0.100,21613.000,0.200,1365.000,0.300,525.000,0.500,534.000,1.000,146.000,5.000,0
"03/05/08","12:08:00",24900.000,"cc",28302.822,6.00,6,0.100,21989.000,0.200,1505.000,0.300,575.000,0.500,650.000,1.000,181.000,5.000,0
"03/05/08","12:08:06",24403.000,"cc",28345.182,6.00,6,0.100,21490.000,0.200,1583.000,0.300,551.000,0.500,594.000,1.000,185.000,5.000,0
"03/05/08","12:08:12",24319.000,"cc",28386.152,6.00,6,0.100,21627.000,0.200,1454.000,0.300,522.000,0.500,560.000,1.000,156.000,5.000,0
"03/05/08","12:08:18",24316.000,"cc",28270.102,6.00,6,0.100,21356.000,0.200,1632.000,0.300,573.000,0.500,605.000,1.000,150.000,5.000,0
"03/05/08","12:08:24",24311.000,"cc",28317.529,6.00,6,0.100,21667.000,0.200,1431.000,0.300,526.000,0.500,527.000,1.000,160.000,5.000,0
"03/05/08","12:08:30",24125.000,"cc",28363.529,6.00,6,0.100,21313.000,0.200,1448.000,0.300,613.000,0.500,588.000,1.000,163.000,5.000,0
"03/05/08","12:08:36",24216.000,"cc",28336.531,6.00,6,0.100,21467.000,0.200,1453.000,0.300,539.000,0.500,585.000,1.000,172.000,5.000,0
"03/05/08","12:08:42",24274.000,"cc",28264.371,6.00,6,0.100,21523.000,0.200,1455.000,0.300,559.000,0.500,597.000,1.000,140.000,5.000,0
"03/05/08","12:08:48",24518.000,"cc",28379.854,6.00,6,0.100,21573.000,0.200,1510.000,0.300,607.000,0.500,635.000,1.000,193.000,5.000,0
"03/05/08","12:08:54",24324.000,"cc",28340.065,6.00,6,0.100,21618.000,0.200,1406.000,0.300,527.000,0.500,589.000,1.000,184.000,5.000,0
"03/05/08","12:09:00",24778.000,"cc",28304.900,6.00,6,0.100,22090.000,0.200,1443.000,0.300,540.000,0.500,541.000,1.000,164.000,5.000,0
"03/05/08","12:09:06",24239.000,"cc",28265.397,6.00,6,0.100,21795.000,0.200,1374.000,0.300,468.000,0.500,474.000,1.000,128.000,5.000,0
"03/05/08","12:09:12",24036.000,"cc",28328.051,6.00,6,0.100,21574.000,0.200,1407.000,0.300,462.000,0.500,461.000,1.000,132.000,5.000,0
"03/05/08","12:09:18",24064.000,"cc",28346.459,6.00,6,0.100,21578.000,0.200,1325.000,0.300,520.000,0.500,496.000,1.000,145.000,5.000,0
"03/05/08","12:09:24",24133.000,"cc",28357.934,6.00,6,0.100,21684.000,0.200,1363.000,0.300,458.000,0.500,483.000,1.000,145.000,5.000,0
"03/05/08","12:09:30",24266.000,"cc",28291.641,6.00,6,0.100,21957.000,0.200,1378.000,0.300,404.000,0.500,404.000,1.000,123.000,5.000,0
"03/05/08","12:09:36",24061.000,"cc",28325.102,6.00,6,0.100,21712.000,0.200,1341.000,0.300,443.000,0.500,467.000,1.000,98.000,5.000,0
"03/05/08","12:09:42",24344.000,"cc",28302.367,6.00,6,0.100,21923.000,0.200,1330.000,0.300,463.000,0.500,485.000,1.000,143.000,5.000,0
"03/05/08","12:09:48",23986.000,"cc",28330.752,6.00,6,0.100,21713.000,0.200,1267.000,0.300,452.000,0.500,435.000,1.000,119.000,5.000,0
"03/05/08","12:09:54",23647.000,"cc",28330.762,6.00,6,0.100,21504.000,0.200,1274.000,0.300,389.000,0.500,378.000,1.000,102.000,5.000,0
"03/05/08","12:10:00",23619.000,"cc",28262.488,6.00,6,0.100,21625.000,0.200,1188.000,0.300,363.000,0.500,344.000,1.000,99.000,5.000,0
"03/05/08","12:10:06",24152.000,"cc",28333.305,6.00,6,0.100,21901.000,0.200,1347.000,0.300,383.000,0.500,415.000,1.000,106.000,5.000,0
"03/05/08","12:10:12",24342.000,"cc",28387.822,6.00,6,0.100,21916.000,0.200,1427.000,0.300,452.000,0.500,427.000,1.000,120.000,5.000,0
"03/05/08","12:10:18",24658.000,"cc",28260.690,6.00,6,0.100,22122.000,0.200,1456.000,0.300,463.000,0.500,481.000,1.000,136.000,5.000,0
"03/05/08","12:10:24",24674.000,"cc",28350.424,6.00,6,0.100,22282.000,0.200,1407.000,0.300,448.000,0.500,408.000,1.000,129.000,5.000,0
"03/05/08","12:10:30",25021.000,"cc",28344.205,6.00,6,0.100,22671.000,0.200,1367.000,0.300,417.000,0.500,457.000,1.000,109.000,5.000,0
"03/05/08","12:10:36",24860.000,"cc",28267.705,6.00,6,0.100,22453.000,0.200,1418.000,0.300,465.000,0.500,417.000,1.000,107.000,5.000,0
"03/05/08","12:10:42",24722.000,"cc",28379.295,6.00,6,0.100,22372.000,0.200,1406.000,0.300,420.000,0.500,423.000,1.000,101.000,5.000,0
"03/05/08","12:10:48",24822.000,"cc",28210.199,6.00,6,0.100,22301.000,0.200,1473.000,0.300,447.000,0.500,492.000,1.000,109.000,5.000,0
"03/05/08","12:10:54",24836.000,"cc",28352.908,6.00,6,0.100,22422.000,0.200,1388.000,0.300,448.000,0.500,447.000,1.000,131.000,5.000,0
"03/05/08","12:11:00",24882.000,"cc",28340.986,6.00,6,0.100,22329.000,0.200,1494.000,0.300,469.000,0.500,447.000,1.000,143.000,5.000,0
"03/05/08","12:11:06",24632.000,"cc",28326.147,6.00,6,0.100,22197.000,0.200,1397.000,0.300,453.000,0.500,455.000,1.000,130.000,5.000,0
"03/05/08","12:11:12",24617.000,"cc",28362.272,6.00,6,0.100,22009.000,0.200,1475.000,0.300,478.000,0.500,507.000,1.000,148.000,5.000,0
"03/05/08","12:11:18",24684.000,"cc",28242.787,6.00,6,0.100,22062.000,0.200,1445.000,0.300,507.000,0.500,522.000,1.000,148.000,5.000,0
"03/05/08","12:11:24",24794.000,"cc",28370.828,6.00,6,0.100,22191.000,0.200,1477.000,0.300,483.000,0.500,491.000,1.000,152.000,5.000,0
"03/05/08","12:11:30",24310.000,"cc",28290.961,6.00,6,0.100,21700.000,0.200,1502.000,0.300,460.000,0.500,497.000,1.000,151.000,5.000,0
"03/05/08","12:11:36",24380.000,"cc",28357.256,6.00,6,0.100,21931.000,0.200,1423.000,0.300,448.000,0.500,442.000,1.000,136.000,5.000,0
"03/05/08","12:11:42",24981.000,"cc",28302.232,6.00,6,0.100,22428.000,0.200,1426.000,0.300,522.000,0.500,461.000,1.000,144.000,5.000,0
"03/05/08","12:11:48",24852.000,"cc",28247.166,6.00,6,0.100,22189.000,0.200,1530.000,0.300,525.000,0.500,477.000,1.000,131.000,5.000,0
"03/05/08","12:11:54",24783.000,"cc",28377.760,6.00,6,0.100,22047.000,0.200,1497.000,0.300,565.000,0.500,513.000,1.000,161.000,5.000,0
"03/05/08","12:12:00",24714.000,"cc",28323.065,6.00,6,0.100,22058.000,0.200,1477.000,0.300,490.000,0.500,537.000,1.000,152.000,5.000,0
"03/05/08","12:12:06",24441.000,"cc",28334.557,6.00,6,0.100,21862.000,0.200,1447.000,0.300,491.000,0.500,480.000,1.000,161.000,5.000,0
"03/05/08","12:12:12",24491.000,"cc",28259.648,6.00,6,0.100,21966.000,0.200,1463.000,0.300,486.000,0.500,457.000,1.000,119.000,5.000,0
"03/05/08","12:12:18",24274.000,"cc",28294.764,6.00,6,0.100,21780.000,0.200,1403.000,0.300,523.000,0.500,441.000,1.000,127.000,5.000,0
"03/05/08","12:12:24",24625.000,"cc",28259.137,6.00,6,0.100,22047.000,0.200,1447.000,0.300,497.000,0.500,499.000,1.000,135.000,5.000,0
"03/05/08","12:12:30",24857.000,"cc",28279.727,6.00,6,0.100,22062.000,0.200,1529.000,0.300,563.000,0.500,540.000,1.000,163.000,5.000,0
"03/05/08","12:12:36",23928.000,"cc",28427.598,6.00,6,0.100,21354.000,0.200,1429.000,0.300,477.000,0.500,506.000,1.000,162.000,5.000,0
"03/05/08","12:12:42",24259.000,"cc",28349.490,6.00,6,0.100,21733.000,0.200,1421.000,0.300,474.000,0.500,486.000,1.000,145.000,5.000,0
"03/05/08","12:12:48",24922.000,"cc",28366.875,6.00,6,0.100,22442.000,0.200,1402.000,0.300,434.000,0.500,493.000,1.000,151.000,5.000,0
"03/05/08","12:12:54",24288.000,"cc",28301.543,6.00,6,0.100,21699.000,0.200,1444.000,0.300,477.000,0.500,497.000,1.000,171.000,5.000,0
"03/05/08","12:13:00",24072.000,"cc",28322.371,6.00,6,0.100,21454.000,0.200,1492.000,0.300,465.000,0.500,506.000,1.000,155.000,5.000,0
"03/05/08","12:13:06",24343.000,"cc",28308.682,6.00,6,0.100,21543.000,0.200,1502.000,0.300,563.000,0.500,567.000,1.000,168.000,5.000,0
"03/05/08","12:13:12",24291.000,"cc",28384.789,6.00,6,0.100,21743.000,0.200,1439.000,0.300,473.000,0.500,501.000,1.000,135.000,5.000,0
"03/05/08","12:13:18",24136.000,"cc",28269.959,6.00,6,0.100,21663.000,0.200,1409.000,0.300,489.000,0.500,453.000,1.000,122.000,5.000,0
"03/05/08","12:13:24",24119.000,"cc",28238.611,6.00,6,0.100,21786.000,0.200,1369.000,0.300,454.000,0.500,389.000,1.000,121.000,5.000,0
"03/05/08","12:13:30",24255.000,"cc",28269.645,6.00,6,0.100,22134.000,0.200,1251.000,0.300,394.000,0.500,358.000,1.000,118.000,5.000,0
"03/05/08","12:13:36",24360.000,"cc",28305.914,6.00,6,0.100,22144.000,0.200,1313.000,0.300,402.000,0.500,372.000,1.000,129.000,5.000,0
"03/05/08","12:13:42",23982.000,"cc",28396.072,6.00,6,0.100,21872.000,0.200,1241.000,0.300,380.000,0.500,390.000,1.000,99.000,5.000,0
"03/05/08","12:13:48",24075.000,"cc",28356.918,6.00,6,0.100,22012.000,0.200,1241.000,0.300,370.000,0.500,344.000,1.000,108.000,5.000,0
"03/05/08","12:13:54",24578.000,"cc",28311.221,6.00,6,0.100,22399.000,0.200,1249.000,0.300,415.000,0.500,405.000,1.000,110.000,5.000,0
"03/05/08","12:14:00",24411.000,"cc",28328.072,6.00,6,0.100,22241.000,0.200,1246.000,0.300,405.000,0.500,418.000,1.000,101.000,5.000,0
"03/05/08","12:14:06",24985.000,"cc",28348.973,6.00,6,0.100,22633.000,0.200,1303.000,0.300,454.000,0.500,462.000,1.000,133.000,5.000,0
"03/05/08","12:14:12",25025.000,"cc",28270.955,6.00,6,0.100,22740.000,0.200,1315.000,0.300,432.000,0.500,417.000,1.000,121.000,5.000,0
"03/05/08","12:14:18",25347.000,"cc",28240.693,6.00,6,0.100,22888.000,0.200,1388.000,0.300,460.000,0.500,486.000,1.000,125.000,5.000,0
"03/05/08","12:14:24",25140.000,"cc",28355.973,6.00,6,0.100,22831.000,0.200,1329.000,0.300,463.000,0.500,403.000,1.000,114.000,5.000,0
"03/05/08","12:14:30",25001.000,"cc",28242.145,6.00,6,0.100,22687.000,0.200,1337.000,0.300,432.000,0.500,438.000,1.000,107.000,5.000,0
"03/05/08","12:14:36",25074.000,"cc",28370.768,6.00,6,0.100,22721.000,0.200,1341.000,0.300,446.000,0.500,449.000,1.000,117.000,5.000,0
"03/05/08","12:14:42",25386.000,"cc",28403.690,6.00,6,0.100,22960.000,0.200,1381.000,0.300,437.000,0.500,478.000,1.000,130.000,5.000,0
"03/05/08","12:14:48",26000.000,"cc",28285.775,6.00,6,0.100,23591.000,0.200,1367.000,0.300,458.000,0.500,459.000,1.000,125.000,5.000,0
"03/05/08","12:14:54",26023.000,"cc",28287.324,6.00,6,0.100,23677.000,0.200,1354.000,0.300,443.000,0.500,423.000,1.000,126.000,5.000,0
"03/05/08","12:15:00",25921.000,"cc",28309.219,6.00,6,0.100,23610.000,0.200,1355.000,0.300,420.000,0.500,402.000,1.000,134.000,5.000,0
"03/05/08","12:15:06",25659.000,"cc",28244.531,6.00,6,0.100,23372.000,0.200,1351.000,0.300,373.000,0.500,442.000,1.000,121.000,5.000,0
"03/05/08","12:15:12",26241.000,"cc",28413.965,6.00,6,0.100,23574.000,0.200,1472.000,0.300,492.000,0.500,553.000,1.000,150.000,5.000,0
"03/05/08","12:15:18",25947.000,"cc",28364.225,6.00,6,0.100,23441.000,0.200,1366.000,0.300,490.000,0.500,481.000,1.000,169.000,5.000,0
"03/05/08","12:15:24",25695.000,"cc",28272.574,6.00,6,0.100,23317.000,0.200,1333.000,0.300,471.000,0.500,460.000,1.000,114.000,5.000,0
"03/05/08","12:15:30",25387.000,"cc",28310.670,6.00,6,0.100,23053.000,0.200,1327.000,0.300,423.000,0.500,437.000,1.000,147.000,5.000,0
"03/05/08","12:15:36",26022.000,"cc",28275.445,6.00,6,0.100,23770.000,0.200,1328.000,0.300,383.000,0.500,407.000,1.000,134.000,5.000,0
"03/05/08","12:15:42",25962.000,"cc",28336.504,6.00,6,0.100,23676.000,0.200,1314.000,0.300,413.000,0.500,440.000,1.000,119.000,5.000,0
"03/05/08","12:15:48",26611.000,"cc",28358.750,6.00,6,0.100,24216.000,0.200,1380.000,0.300,430.000,0.500,472.000,1.000,113.000,5.000,0
"03/05/08","12:15:54",26151.000,"cc",28288.795,6.00,6,0.100,23899.000,0.200,1313.000,0.300,403.000,0.500,420.000,1.000,116.000,5.000,0
"03/05/08","12:16:00",26111.000,"cc",28311.322,6.00,6,0.100,23726.000,0.200,1388.000,0.300,449.000,0.500,429.000,1.000,119.000,5.000,0
"03/05/08","12:16:06",26281.000,"cc",28349.029,6.00,6,0.100,23946.000,0.200,1369.000,0.300,446.000,0.500,395.000,1.000,125.000,5.000,0
"03/05/08","12:16:12",26127.000,"cc",28303.231,6.00,6,0.100,23701.000,0.200,1412.000,0.300,451.000,0.500,434.000,1.000,129.000,5.000,0
"03/05/08","12:16:18",25675.000,"cc",28311.387,6.00,6,0.100,23264.000,0.200,1351.000,0.300,453.000,0.500,456.000,1.000,151.000,5.000,0
"03/05/08","12:16:24",25948.000,"cc",28305.809,6.00,6,0.100,23357.000,0.200,1375.000,0.300,531.000,0.500,546.000,1.000,139.000,5.000,0
"03/05/08","12:16:30",26317.000,"cc",28287.664,6.00,6,0.100,23940.000,0.200,1363.000,0.300,441.000,0.500,454.000,1.000,119.000,5.000,0
"03/05/08","12:16:36",26772.000,"cc",28354.647,6.00,6,0.100,24339.000,0.200,1464.000,0.300,410.000,0.500,436.000,1.000,123.000,5.000,0